Year,Month,Day,Hour,Minute,Value (Times are PST for temperature in C)
2021,08,16,00,00,19.70
2021,08,16,00,01,19.70
2021,08,16,00,02,19.70
2021,08,16,00,03,19.60
2021,08,16,00,04,19.60
2021,08,16,00,05,19.50
2021,08,16,00,06,19.50
2021,08,16,00,07,19.50
2021,08,16,00,08,19.40
2021,08,16,00,09,19.40
2021,08,16,00,10,19.30
2021,08,16,00,11,19.30
2021,08,16,00,12,19.30
2021,08,16,00,13,19.20
2021,08,16,00,14,19.20
2021,08,16,00,15,19.20
2021,08,16,00,16,19.20
2021,08,16,00,17,19.20
2021,08,16,00,18,19.20
2021,08,16,00,19,19.20
2021,08,16,00,20,19.20
2021,08,16,00,21,19.10
2021,08,16,00,22,19.10
2021,08,16,00,23,19.00
2021,08,16,00,24,19.00
2021,08,16,00,25,18.90
2021,08,16,00,26,18.90
2021,08,16,00,27,18.90
2021,08,16,00,28,18.80
2021,08,16,00,29,18.80
2021,08,16,00,30,18.80
2021,08,16,00,31,18.80
2021,08,16,00,32,18.80
2021,08,16,00,33,18.80
2021,08,16,00,34,18.80
2021,08,16,00,35,18.80
2021,08,16,00,36,18.80
2021,08,16,00,37,18.70
2021,08,16,00,38,18.70
2021,08,16,00,39,18.70
2021,08,16,00,40,18.70
2021,08,16,00,41,18.70
2021,08,16,00,42,18.70
2021,08,16,00,43,18.70
2021,08,16,00,44,18.70
2021,08,16,00,45,18.70
2021,08,16,00,46,18.70
2021,08,16,00,47,18.70
2021,08,16,00,48,18.70
2021,08,16,00,49,18.70
2021,08,16,00,50,18.70
2021,08,16,00,51,18.70
2021,08,16,00,52,18.70
2021,08,16,00,53,18.70
2021,08,16,00,54,18.70
2021,08,16,00,55,18.70
2021,08,16,00,56,18.70
2021,08,16,00,57,18.70
2021,08,16,00,58,18.70
2021,08,16,00,59,18.70
2021,08,16,01,00,18.70
2021,08,16,01,01,18.70
2021,08,16,01,02,18.70
2021,08,16,01,03,18.70
2021,08,16,01,04,18.80
2021,08,16,01,05,18.80
2021,08,16,01,06,18.80
2021,08,16,01,07,18.80
2021,08,16,01,08,18.80
2021,08,16,01,09,18.80
2021,08,16,01,10,18.80
2021,08,16,01,11,18.80
2021,08,16,01,12,18.80
2021,08,16,01,13,18.80
2021,08,16,01,14,18.80
2021,08,16,01,15,18.80
2021,08,16,01,16,18.80
2021,08,16,01,17,18.80
2021,08,16,01,18,18.80
2021,08,16,01,19,18.80
2021,08,16,01,20,18.80
2021,08,16,01,21,18.80
2021,08,16,01,22,18.80
2021,08,16,01,23,18.80
2021,08,16,01,24,18.80
2021,08,16,01,25,18.80
2021,08,16,01,26,18.80
2021,08,16,01,27,18.80
2021,08,16,01,28,18.80
2021,08,16,01,29,18.80
2021,08,16,01,30,18.80
2021,08,16,01,31,18.80
2021,08,16,01,32,18.80
2021,08,16,01,33,18.80
2021,08,16,01,34,18.80
2021,08,16,01,35,18.80
2021,08,16,01,36,18.80
2021,08,16,01,37,18.80
2021,08,16,01,38,18.70
2021,08,16,01,39,18.70
2021,08,16,01,40,18.70
2021,08,16,01,41,18.70
2021,08,16,01,42,18.70
2021,08,16,01,43,18.60
2021,08,16,01,44,18.60
2021,08,16,01,45,18.60
2021,08,16,01,46,18.60
2021,08,16,01,47,18.60
2021,08,16,01,48,18.60
2021,08,16,01,49,18.60
2021,08,16,01,50,18.50
2021,08,16,01,51,18.50
2021,08,16,01,52,18.50
2021,08,16,01,53,18.50
2021,08,16,01,54,18.40
2021,08,16,01,55,18.40
2021,08,16,01,56,18.40
2021,08,16,01,57,18.40
2021,08,16,01,58,18.40
2021,08,16,01,59,18.40
2021,08,16,02,00,18.40
2021,08,16,02,01,18.40
2021,08,16,02,02,18.40
2021,08,16,02,03,18.30
2021,08,16,02,04,18.30
2021,08,16,02,05,18.30
2021,08,16,02,06,18.30
2021,08,16,02,07,18.30
2021,08,16,02,08,18.30
2021,08,16,02,09,18.30
2021,08,16,02,10,18.20
2021,08,16,02,11,18.20
2021,08,16,02,12,18.20
2021,08,16,02,13,18.20
2021,08,16,02,14,18.20
2021,08,16,02,15,18.20
2021,08,16,02,16,18.20
2021,08,16,02,17,18.20
2021,08,16,02,18,18.20
2021,08,16,02,19,18.20
2021,08,16,02,20,18.10
2021,08,16,02,21,18.10
2021,08,16,02,22,18.10
2021,08,16,02,23,18.10
2021,08,16,02,24,18.10
2021,08,16,02,25,18.10
2021,08,16,02,26,18.10
2021,08,16,02,27,18.20
2021,08,16,02,28,18.20
2021,08,16,02,29,18.10
2021,08,16,02,30,18.10
2021,08,16,02,31,18.10
2021,08,16,02,32,18.10
2021,08,16,02,33,18.10
2021,08,16,02,34,18.10
2021,08,16,02,35,18.10
2021,08,16,02,36,18.00
2021,08,16,02,37,18.00
2021,08,16,02,38,18.00
2021,08,16,02,39,18.00
2021,08,16,02,40,18.00
2021,08,16,02,41,18.00
2021,08,16,02,42,18.00
2021,08,16,02,43,18.00
2021,08,16,02,44,18.00
2021,08,16,02,45,18.00
2021,08,16,02,46,18.00
2021,08,16,02,47,18.00
2021,08,16,02,48,18.00
2021,08,16,02,49,18.00
2021,08,16,02,50,18.00
2021,08,16,02,51,18.00
2021,08,16,02,52,18.00
2021,08,16,02,53,18.00
2021,08,16,02,54,18.00
2021,08,16,02,55,18.00
2021,08,16,02,56,18.00
2021,08,16,02,57,18.00
2021,08,16,02,58,18.00
2021,08,16,02,59,18.00
2021,08,16,03,00,18.00
2021,08,16,03,01,18.00
2021,08,16,03,02,18.00
2021,08,16,03,03,18.00
2021,08,16,03,04,18.00
2021,08,16,03,05,18.00
2021,08,16,03,06,18.00
2021,08,16,03,07,18.00
2021,08,16,03,08,18.00
2021,08,16,03,09,18.00
2021,08,16,03,10,18.00
2021,08,16,03,11,18.00
2021,08,16,03,12,18.00
2021,08,16,03,13,18.00
2021,08,16,03,14,18.10
2021,08,16,03,15,18.10
2021,08,16,03,16,18.10
2021,08,16,03,17,18.10
2021,08,16,03,18,18.10
2021,08,16,03,19,18.10
2021,08,16,03,20,18.10
2021,08,16,03,21,18.10
2021,08,16,03,22,18.10
2021,08,16,03,23,18.10
2021,08,16,03,24,18.10
2021,08,16,03,25,18.10
2021,08,16,03,26,18.10
2021,08,16,03,27,18.10
2021,08,16,03,28,18.10
2021,08,16,03,29,18.10
2021,08,16,03,30,18.00
2021,08,16,03,31,18.00
2021,08,16,03,32,18.00
2021,08,16,03,33,18.00
2021,08,16,03,34,18.00
2021,08,16,03,35,18.00
2021,08,16,03,36,17.90
2021,08,16,03,37,18.00
2021,08,16,03,38,17.90
2021,08,16,03,39,18.00
2021,08,16,03,40,17.90
2021,08,16,03,41,18.00
2021,08,16,03,42,17.90
2021,08,16,03,43,18.00
2021,08,16,03,44,18.00
2021,08,16,03,45,18.00
2021,08,16,03,46,18.00
2021,08,16,03,47,18.00
2021,08,16,03,48,18.00
2021,08,16,03,49,18.00
2021,08,16,03,50,18.00
2021,08,16,03,51,18.00
2021,08,16,03,52,18.00
2021,08,16,03,53,18.00
2021,08,16,03,54,18.00
2021,08,16,03,55,18.00
2021,08,16,03,56,17.90
2021,08,16,03,57,17.90
2021,08,16,03,58,17.90
2021,08,16,03,59,17.90
2021,08,16,04,00,17.90
2021,08,16,04,01,17.90
2021,08,16,04,02,17.90
2021,08,16,04,03,17.90
2021,08,16,04,04,17.90
2021,08,16,04,05,18.00
2021,08,16,04,06,17.90
2021,08,16,04,07,17.90
2021,08,16,04,08,18.00
2021,08,16,04,09,17.90
2021,08,16,04,10,17.90
2021,08,16,04,11,18.00
2021,08,16,04,12,18.00
2021,08,16,04,13,18.00
2021,08,16,04,14,18.00
2021,08,16,04,15,18.00
2021,08,16,04,16,18.00
2021,08,16,04,17,18.00
2021,08,16,04,18,18.00
2021,08,16,04,19,18.00
2021,08,16,04,20,18.00
2021,08,16,04,21,18.00
2021,08,16,04,22,18.00
2021,08,16,04,23,18.00
2021,08,16,04,24,18.00
2021,08,16,04,25,18.00
2021,08,16,04,26,18.00
2021,08,16,04,27,18.00
2021,08,16,04,28,18.00
2021,08,16,04,29,18.00
2021,08,16,04,30,18.00
2021,08,16,04,31,18.00
2021,08,16,04,32,18.00
2021,08,16,04,33,18.00
2021,08,16,04,34,18.00
2021,08,16,04,35,18.00
2021,08,16,04,36,18.00
2021,08,16,04,37,18.00
2021,08,16,04,38,18.00
2021,08,16,04,39,18.00
2021,08,16,04,40,18.00
2021,08,16,04,41,18.00
2021,08,16,04,42,18.00
2021,08,16,04,43,18.00
2021,08,16,04,44,18.00
2021,08,16,04,45,18.00
2021,08,16,04,46,18.00
2021,08,16,04,47,18.00
2021,08,16,04,48,18.00
2021,08,16,04,49,18.00
2021,08,16,04,50,18.00
2021,08,16,04,51,18.00
2021,08,16,04,52,18.00
2021,08,16,04,53,18.00
2021,08,16,09,07,18.40
2021,08,16,09,08,18.40
2021,08,16,09,09,18.50
2021,08,16,09,10,18.50
2021,08,16,09,11,18.50
2021,08,16,09,12,18.50
2021,08,16,09,13,18.50
2021,08,16,09,14,18.60
2021,08,16,09,15,18.60
2021,08,16,09,16,18.60
2021,08,16,09,17,18.60
2021,08,16,09,18,18.60
2021,08,16,09,19,18.50
2021,08,16,09,20,18.60
2021,08,16,09,21,18.60
2021,08,16,09,22,18.60
2021,08,16,09,23,18.60
2021,08,16,09,24,18.60
2021,08,16,09,25,18.60
2021,08,16,09,26,18.60
2021,08,16,09,27,18.60
2021,08,16,09,28,18.60
2021,08,16,09,29,18.60
2021,08,16,09,30,18.70
2021,08,16,09,31,18.70
2021,08,16,09,32,18.70
2021,08,16,09,33,18.70
2021,08,16,09,34,18.70
2021,08,16,09,35,18.80
2021,08,16,09,36,18.80
2021,08,16,09,37,18.80
2021,08,16,09,38,18.90
2021,08,16,09,39,18.90
2021,08,16,09,40,18.90
2021,08,16,09,41,18.90
2021,08,16,09,42,18.90
2021,08,16,09,43,19.00
2021,08,16,09,44,19.00
2021,08,16,09,45,19.10
2021,08,16,09,46,19.10
2021,08,16,09,47,19.10
2021,08,16,09,48,19.10
2021,08,16,09,49,19.10
2021,08,16,09,50,19.10
2021,08,16,09,51,19.10
2021,08,16,09,52,19.20
2021,08,16,09,53,19.10
2021,08,16,09,54,19.10
2021,08,16,09,55,19.20
2021,08,16,09,56,19.20
2021,08,16,09,57,19.20
2021,08,16,09,58,19.20
2021,08,16,09,59,19.20
2021,08,16,10,00,19.20
2021,08,16,10,01,19.20
2021,08,16,10,02,19.20
2021,08,16,10,03,19.20
2021,08,16,10,04,19.20
2021,08,16,10,05,19.20
2021,08,16,10,06,19.30
2021,08,16,10,07,19.30
2021,08,16,10,08,19.30
2021,08,16,10,09,19.30
2021,08,16,10,10,19.30
2021,08,16,10,11,19.30
2021,08,16,10,12,19.40
2021,08,16,10,13,19.40
2021,08,16,10,14,19.40
2021,08,16,10,15,19.40
2021,08,16,10,16,19.50
2021,08,16,10,17,19.50
2021,08,16,10,18,19.50
2021,08,16,10,19,19.50
2021,08,16,10,20,19.50
2021,08,16,10,21,19.60
2021,08,16,10,22,19.60
2021,08,16,10,23,19.60
2021,08,16,10,24,19.60
2021,08,16,10,25,19.60
2021,08,16,10,26,19.60
2021,08,16,10,27,19.60
2021,08,16,10,28,19.60
2021,08,16,10,29,19.60
2021,08,16,10,30,19.60
2021,08,16,10,31,19.60
2021,08,16,10,32,19.60
2021,08,16,10,33,19.60
2021,08,16,10,34,19.60
2021,08,16,10,35,19.60
2021,08,16,10,36,19.60
2021,08,16,10,37,19.60
2021,08,16,10,38,19.60
2021,08,16,10,39,19.60
2021,08,16,10,40,19.60
2021,08,16,10,41,19.60
2021,08,16,10,42,19.60
2021,08,16,10,43,19.60
2021,08,16,10,44,19.60
2021,08,16,10,45,19.60
2021,08,16,10,46,19.60
2021,08,16,10,47,19.60
2021,08,16,10,48,19.60
2021,08,16,10,49,19.70
2021,08,16,10,50,19.70
2021,08,16,10,51,19.70
2021,08,16,10,52,19.70
2021,08,16,10,53,19.70
2021,08,16,10,54,19.70
2021,08,16,10,55,19.70
2021,08,16,10,56,19.70
2021,08,16,10,57,19.70
2021,08,16,10,58,19.70
2021,08,16,10,59,19.70
2021,08,16,11,00,19.70
2021,08,16,11,01,19.80
2021,08,16,11,02,19.80
2021,08,16,11,03,19.80
2021,08,16,11,04,19.80
2021,08,16,11,05,19.80
2021,08,16,11,06,19.80
2021,08,16,11,07,19.80
2021,08,16,11,08,19.90
2021,08,16,11,09,19.90
2021,08,16,11,10,19.90
2021,08,16,11,11,19.90
2021,08,16,11,12,19.90
2021,08,16,11,13,19.90
2021,08,16,11,14,19.90
2021,08,16,11,15,20.00
2021,08,16,11,16,20.00
2021,08,16,11,17,20.00
2021,08,16,11,18,20.00
2021,08,16,11,19,20.00
2021,08,16,11,20,20.00
2021,08,16,11,21,20.00
2021,08,16,11,22,20.10
2021,08,16,11,23,20.10
2021,08,16,11,24,20.10
2021,08,16,11,25,20.10
2021,08,16,11,26,20.10
2021,08,16,11,27,20.10
2021,08,16,11,28,20.10
2021,08,16,11,29,20.10
2021,08,16,11,30,20.10
2021,08,16,11,31,20.10
2021,08,16,11,32,20.00
2021,08,16,11,33,19.90
2021,08,16,11,34,19.90
2021,08,16,11,35,19.90
2021,08,16,11,36,19.90
2021,08,16,11,37,19.80
2021,08,16,11,38,19.80
2021,08,16,11,39,19.80
2021,08,16,11,40,19.70
2021,08,16,11,41,19.70
2021,08,16,11,42,19.70
2021,08,16,11,43,19.70
2021,08,16,11,44,19.70
2021,08,16,11,45,19.70
2021,08,16,11,46,19.70
2021,08,16,11,47,19.60
2021,08,16,11,48,19.70
2021,08,16,11,49,19.70
2021,08,16,11,50,19.70
2021,08,16,11,51,19.70
2021,08,16,11,52,19.70
2021,08,16,11,53,19.70
2021,08,16,11,54,19.70
2021,08,16,11,55,19.70
2021,08,16,11,56,19.70
2021,08,16,11,57,19.70
2021,08,16,11,58,19.70
2021,08,16,11,59,19.60
2021,08,16,12,00,19.70
2021,08,16,12,01,19.70
2021,08,16,12,02,19.70
2021,08,16,12,03,19.70
2021,08,16,12,04,19.70
2021,08,16,12,05,19.60
2021,08,16,12,06,19.60
2021,08,16,12,07,19.60
2021,08,16,12,08,19.60
2021,08,16,12,09,19.60
2021,08,16,12,10,19.60
2021,08,16,12,11,19.70
2021,08,16,12,12,19.70
2021,08,16,12,13,19.70
2021,08,16,12,14,19.80
2021,08,16,12,15,19.80
2021,08,16,12,16,19.80
2021,08,16,12,17,19.80
2021,08,16,12,18,19.80
2021,08,16,12,19,19.70
2021,08,16,12,20,19.70
2021,08,16,12,21,19.70
2021,08,16,12,22,19.70
2021,08,16,12,23,19.70
2021,08,16,12,24,19.70
2021,08,16,12,25,19.70
2021,08,16,12,26,19.70
2021,08,16,12,27,19.70
2021,08,16,12,28,19.70
2021,08,16,12,29,19.70
2021,08,16,12,30,19.70
2021,08,16,12,31,19.70
2021,08,16,12,32,19.80
2021,08,16,12,33,19.80
2021,08,16,12,34,19.80
2021,08,16,12,35,19.80
2021,08,16,12,36,19.80
2021,08,16,12,37,19.80
2021,08,16,12,38,19.80
2021,08,16,12,39,19.80
2021,08,16,12,40,19.80
2021,08,16,12,41,19.80
2021,08,16,12,42,19.80
2021,08,16,12,43,19.70
2021,08,16,12,44,19.80
2021,08,16,12,45,19.80
2021,08,16,12,46,19.80
2021,08,16,12,47,19.80
2021,08,16,12,48,19.80
2021,08,16,12,49,19.80
2021,08,16,12,50,19.80
2021,08,16,12,51,19.80
2021,08,16,12,52,19.80
2021,08,16,12,53,19.80
2021,08,16,12,54,19.80
2021,08,16,12,55,19.80
2021,08,16,12,56,19.80
2021,08,16,12,57,19.80
2021,08,16,12,58,19.80
2021,08,16,12,59,19.90
2021,08,16,13,00,19.90
2021,08,16,13,01,19.90
2021,08,16,13,02,19.90
2021,08,16,13,03,19.90
2021,08,16,13,04,20.00
2021,08,16,13,05,20.00
2021,08,16,13,06,20.00
2021,08,16,13,07,20.00
2021,08,16,13,08,20.00
2021,08,16,13,09,20.00
2021,08,16,13,10,20.00
2021,08,16,13,11,20.00
2021,08,16,13,12,20.00
2021,08,16,13,13,20.00
2021,08,16,13,14,19.70
2021,08,16,13,15,19.60
2021,08,16,13,16,19.50
2021,08,16,13,17,19.50
2021,08,16,13,18,19.40
2021,08,16,13,19,19.40
2021,08,16,13,20,19.40
2021,08,16,13,21,19.40
2021,08,16,13,22,19.40
2021,08,16,13,23,19.40
2021,08,16,13,24,19.50
2021,08,16,13,25,19.50
2021,08,16,13,26,19.60
2021,08,16,13,27,19.60
2021,08,16,13,28,19.60
2021,08,16,13,29,19.60
2021,08,16,13,30,19.60
2021,08,16,13,31,19.60
2021,08,16,13,32,19.60
2021,08,16,13,33,19.60
2021,08,16,13,34,19.60
2021,08,16,13,35,19.70
2021,08,16,13,36,19.60
2021,08,16,13,37,19.60
2021,08,16,13,38,19.60
2021,08,16,13,39,19.60
2021,08,16,13,40,19.60
2021,08,16,13,41,19.60
2021,08,16,13,42,19.60
2021,08,16,13,43,19.70
2021,08,16,13,44,19.70
2021,08,16,13,45,19.70
2021,08,16,13,46,19.70
2021,08,16,13,47,19.70
2021,08,16,13,48,19.70
2021,08,16,13,49,19.70
2021,08,16,13,50,19.70
2021,08,16,13,51,19.70
2021,08,16,13,52,19.70
2021,08,16,13,53,19.70
2021,08,16,13,54,19.80
2021,08,16,13,55,19.80
2021,08,16,13,56,19.80
2021,08,16,13,57,19.70
2021,08,16,13,58,19.70
2021,08,16,13,59,19.70
2021,08,16,14,00,19.70
2021,08,16,14,01,19.70
2021,08,16,14,02,19.70
2021,08,16,14,03,19.70
2021,08,16,14,04,19.70
2021,08,16,14,05,19.70
2021,08,16,14,06,19.70
2021,08,16,14,07,19.80
2021,08,16,14,08,19.80
2021,08,16,14,09,19.80
2021,08,16,14,10,19.80
2021,08,16,14,11,19.80
2021,08,16,14,12,19.80
2021,08,16,14,13,19.90
2021,08,16,14,14,19.90
2021,08,16,14,15,20.00
2021,08,16,14,16,20.00
2021,08,16,14,17,20.10
2021,08,16,14,18,20.10
2021,08,16,14,19,20.10
2021,08,16,14,20,20.20
2021,08,16,14,21,20.20
2021,08,16,14,22,20.20
2021,08,16,14,23,20.20
2021,08,16,14,24,20.20
2021,08,16,14,25,20.30
2021,08,16,14,26,20.30
2021,08,16,14,27,20.30
2021,08,16,14,28,20.30
2021,08,16,14,29,20.40
2021,08,16,14,30,20.50
2021,08,16,14,31,20.50
2021,08,16,14,32,20.50
2021,08,16,14,33,20.60
2021,08,16,14,34,20.60
2021,08,16,14,35,20.70
2021,08,16,14,36,20.80
2021,08,16,14,37,20.80
2021,08,16,14,38,20.90
2021,08,16,14,39,21.00
2021,08,16,14,40,21.00
2021,08,16,14,41,21.10
2021,08,16,14,42,21.10
2021,08,16,14,43,21.10
2021,08,16,14,44,21.20
2021,08,16,14,45,21.20
2021,08,16,14,46,21.30
2021,08,16,14,47,21.40
2021,08,16,14,48,21.40
2021,08,16,14,49,21.40
2021,08,16,14,50,21.40
2021,08,16,14,51,21.40
2021,08,16,14,52,21.40
2021,08,16,14,53,21.40
2021,08,16,14,54,21.40
2021,08,16,14,55,21.40
2021,08,16,14,56,21.40
2021,08,16,14,57,21.10
2021,08,16,14,58,21.10
2021,08,16,14,59,21.00
2021,08,16,15,00,20.80
2021,08,16,15,01,20.70
2021,08,16,15,02,20.60
2021,08,16,15,03,20.50
2021,08,16,15,04,20.50
2021,08,16,15,05,20.40
2021,08,16,15,06,20.30
2021,08,16,15,07,20.30
2021,08,16,15,08,20.30
2021,08,16,15,09,20.20
2021,08,16,15,10,20.20
2021,08,16,15,11,20.10
2021,08,16,15,12,20.00
2021,08,16,15,13,19.90
2021,08,16,15,14,19.90
2021,08,16,15,15,19.90
2021,08,16,15,16,19.80
2021,08,16,15,17,19.90
2021,08,16,15,18,19.90
2021,08,16,15,19,19.90
2021,08,16,15,20,20.00
2021,08,16,15,21,20.00
2021,08,16,15,22,20.00
2021,08,16,15,23,20.00
2021,08,16,15,24,20.00
2021,08,16,15,25,20.00
2021,08,16,15,26,20.00
2021,08,16,15,27,20.10
2021,08,16,15,28,20.10
2021,08,16,15,29,20.00
2021,08,16,15,30,19.90
2021,08,16,15,31,19.90
2021,08,16,15,32,19.80
2021,08,16,15,33,19.80
2021,08,16,15,34,19.70
2021,08,16,15,35,19.70
2021,08,16,15,36,19.60
2021,08,16,15,37,19.60
2021,08,16,15,38,19.60
2021,08,16,15,39,19.60
2021,08,16,15,40,19.50
2021,08,16,15,41,19.60
2021,08,16,15,42,19.50
2021,08,16,15,43,19.50
2021,08,16,15,44,19.40
2021,08,16,15,45,19.30
2021,08,16,15,46,19.20
2021,08,16,15,47,19.10
2021,08,16,15,48,19.10
2021,08,16,15,49,19.10
2021,08,16,15,50,19.10
2021,08,16,15,51,19.00
2021,08,16,15,52,18.90
2021,08,16,15,53,18.90
2021,08,16,15,54,18.90
2021,08,16,15,55,18.90
2021,08,16,15,56,18.90
2021,08,16,15,57,18.90
2021,08,16,15,58,18.90
2021,08,16,15,59,18.90
2021,08,16,16,00,18.90
2021,08,16,16,01,18.90
2021,08,16,16,02,18.90
2021,08,16,16,03,18.90
2021,08,16,16,04,18.90
2021,08,16,16,05,18.90
2021,08,16,16,06,18.90
2021,08,16,16,07,18.90
2021,08,16,16,08,19.00
2021,08,16,16,09,19.10
2021,08,16,16,10,19.20
2021,08,16,16,11,19.20
2021,08,16,16,12,19.30
2021,08,16,16,13,19.30
2021,08,16,16,14,19.40
2021,08,16,16,15,19.50
2021,08,16,16,16,19.60
2021,08,16,16,17,19.80
2021,08,16,16,18,19.80
2021,08,16,16,19,19.80
2021,08,16,16,20,19.80
2021,08,16,16,21,19.70
2021,08,16,16,22,19.70
2021,08,16,16,23,19.70
2021,08,16,16,24,19.70
2021,08,16,16,25,19.80
2021,08,16,16,26,19.80
2021,08,16,16,27,19.80
2021,08,16,16,28,19.80
2021,08,16,16,29,19.90
2021,08,16,16,30,19.90
2021,08,16,16,31,20.00
2021,08,16,16,32,20.10
2021,08,16,16,33,20.00
2021,08,16,16,34,19.90
2021,08,16,16,35,19.80
2021,08,16,16,36,19.70
2021,08,16,16,37,19.60
2021,08,16,16,38,19.60
2021,08,16,16,39,19.50
2021,08,16,16,40,19.50
2021,08,16,16,41,19.40
2021,08,16,16,42,19.40
2021,08,16,16,43,19.40
2021,08,16,16,44,19.40
2021,08,16,16,45,19.40
2021,08,16,16,46,19.40
2021,08,16,16,47,19.50
2021,08,16,16,48,19.50
2021,08,16,16,49,19.50
2021,08,16,16,50,19.50
2021,08,16,16,51,19.50
2021,08,16,16,52,19.50
2021,08,16,16,53,19.50
2021,08,16,16,54,19.50
2021,08,16,16,55,19.60
2021,08,16,16,56,19.70
2021,08,16,16,57,19.70
2021,08,16,16,58,19.80
2021,08,16,16,59,19.80
2021,08,16,17,00,19.70
2021,08,16,17,01,19.80
2021,08,16,17,02,19.70
2021,08,16,17,03,19.70
2021,08,16,17,04,19.70
2021,08,16,17,05,19.70
2021,08,16,17,06,19.70
2021,08,16,17,07,19.70
2021,08,16,17,08,19.70
2021,08,16,17,09,19.60
2021,08,16,17,10,19.60
2021,08,16,17,11,19.60
2021,08,16,17,12,19.60
2021,08,16,17,13,19.60
2021,08,16,17,14,19.60
2021,08,16,17,15,19.60
2021,08,16,17,16,19.60
2021,08,16,17,17,19.60
2021,08,16,17,18,19.60
2021,08,16,17,19,19.60
2021,08,16,17,20,19.60
2021,08,16,17,21,19.60
2021,08,16,17,22,19.60
2021,08,16,17,23,19.60
2021,08,16,17,24,19.60
2021,08,16,17,25,19.60
2021,08,16,17,26,19.70
2021,08,16,17,27,19.70
2021,08,16,17,28,19.70
2021,08,16,17,29,19.70
2021,08,16,17,30,19.70
2021,08,16,17,31,19.70
2021,08,16,17,32,19.60
2021,08,16,17,33,19.60
2021,08,16,17,34,19.50
2021,08,16,17,35,19.50
2021,08,16,17,36,19.50
2021,08,16,17,37,19.40
2021,08,16,17,38,19.50
2021,08,16,17,39,19.50
2021,08,16,17,40,19.50
2021,08,16,17,41,19.50
2021,08,16,17,42,19.60
2021,08,16,17,43,19.60
2021,08,16,17,44,19.60
2021,08,16,17,45,19.60
2021,08,16,17,46,19.60
2021,08,16,17,47,19.60
2021,08,16,17,48,19.60
2021,08,16,17,49,19.50
2021,08,16,17,50,19.50
2021,08,16,17,51,19.40
2021,08,16,17,52,19.40
2021,08,16,17,53,19.40
2021,08,16,17,54,19.40
2021,08,16,17,55,19.40
2021,08,16,17,56,19.40
2021,08,16,17,57,19.30
2021,08,16,17,58,19.30
2021,08,16,17,59,19.30
2021,08,16,18,00,19.30
2021,08,16,18,01,19.30
2021,08,16,18,02,19.30
2021,08,16,18,03,19.30
2021,08,16,18,04,19.20
2021,08,16,18,05,19.20
2021,08,16,18,06,19.20
2021,08,16,18,07,19.20
2021,08,16,18,08,19.20
2021,08,16,18,09,19.20
2021,08,16,18,10,19.20
2021,08,16,18,11,19.10
2021,08,16,18,12,19.10
2021,08,16,18,13,19.10
2021,08,16,18,14,19.10
2021,08,16,18,15,19.10
2021,08,16,18,16,19.10
2021,08,16,18,17,19.10
2021,08,16,18,18,19.10
2021,08,16,18,19,19.10
2021,08,16,18,20,19.10
2021,08,16,18,21,19.10
2021,08,16,18,22,19.10
2021,08,16,18,23,19.10
2021,08,16,18,24,19.10
2021,08,16,18,25,19.10
2021,08,16,18,26,19.10
2021,08,16,18,27,19.10
2021,08,16,18,28,19.00
2021,08,16,18,29,19.00
2021,08,16,18,30,19.00
2021,08,16,18,31,19.00
2021,08,16,18,32,19.00
2021,08,16,18,33,18.90
2021,08,16,18,34,18.90
2021,08,16,18,35,18.90
2021,08,16,18,36,19.00
2021,08,16,18,37,19.00
2021,08,16,18,38,19.00
2021,08,16,18,39,19.00
2021,08,16,18,40,18.90
2021,08,16,18,41,18.90
2021,08,16,18,42,18.80
2021,08,16,18,43,18.80
2021,08,16,18,44,18.70
2021,08,16,18,45,18.70
2021,08,16,18,46,18.70
2021,08,16,18,47,18.70
2021,08,16,18,48,18.60
2021,08,16,18,49,18.60
2021,08,16,18,50,18.60
2021,08,16,18,51,18.60
2021,08,16,18,52,18.50
2021,08,16,18,53,18.50
2021,08,16,18,54,18.50
2021,08,16,18,55,18.40
2021,08,16,18,56,18.40
2021,08,16,18,57,18.30
2021,08,16,18,58,18.30
2021,08,16,18,59,18.30
2021,08,16,19,00,18.30
2021,08,16,19,01,18.30
2021,08,16,19,02,18.30
2021,08,16,19,03,18.30
2021,08,16,19,04,18.30
2021,08,16,19,05,18.30
2021,08,16,19,06,18.30
2021,08,16,19,07,18.30
2021,08,16,19,08,18.20
2021,08,16,19,09,18.20
2021,08,16,19,10,18.20
2021,08,16,19,11,18.20
2021,08,16,19,12,18.20
2021,08,16,19,13,18.20
2021,08,16,19,14,18.20
2021,08,16,19,15,18.20
2021,08,16,19,16,18.20
2021,08,16,19,17,18.10
2021,08,16,19,18,18.10
2021,08,16,19,19,18.10
2021,08,16,19,20,18.10
2021,08,16,19,21,18.20
2021,08,16,19,22,18.20
2021,08,16,19,23,18.20
2021,08,16,19,24,18.20
2021,08,16,19,25,18.10
2021,08,16,19,26,18.10
2021,08,16,19,27,18.10
2021,08,16,19,28,18.10
2021,08,16,19,29,18.10
2021,08,16,19,30,18.10
2021,08,16,19,31,18.10
2021,08,16,19,32,18.10
2021,08,16,19,33,18.10
2021,08,16,19,34,18.00
2021,08,16,19,35,18.00
2021,08,16,19,36,18.00
2021,08,16,19,37,18.00
2021,08,16,19,38,18.00
2021,08,16,19,39,18.00
2021,08,16,19,40,17.90
2021,08,16,19,41,17.90
2021,08,16,19,42,17.90
2021,08,16,19,43,17.90
2021,08,16,19,44,17.90
2021,08,16,19,45,17.90
2021,08,16,19,46,17.90
2021,08,16,19,47,17.90
2021,08,16,19,48,17.90
2021,08,16,19,49,17.90
2021,08,16,19,50,17.90
2021,08,16,19,51,17.90
2021,08,16,19,52,17.90
2021,08,16,19,53,17.90
2021,08,16,19,54,17.90
2021,08,16,19,55,17.90
2021,08,16,19,56,17.90
2021,08,16,19,57,17.90
2021,08,16,19,58,17.90
2021,08,16,19,59,17.90
2021,08,16,20,00,17.90
2021,08,16,20,01,17.90
2021,08,16,20,02,17.90
2021,08,16,20,03,17.90
2021,08,16,20,04,17.90
2021,08,16,20,05,17.90
2021,08,16,20,06,17.90
2021,08,16,20,07,17.90
2021,08,16,20,08,17.90
2021,08,16,20,09,17.90
2021,08,16,20,10,17.90
2021,08,16,20,11,17.90
2021,08,16,20,12,17.90
2021,08,16,20,13,17.90
2021,08,16,20,14,17.80
2021,08,16,20,15,17.80
2021,08,16,20,16,17.80
2021,08,16,20,17,17.80
2021,08,16,20,18,17.80
2021,08,16,20,19,17.80
2021,08,16,20,20,17.80
2021,08,16,20,21,17.80
2021,08,16,20,22,17.80
2021,08,16,20,23,17.80
2021,08,16,20,24,17.80
2021,08,16,20,25,17.70
2021,08,16,20,26,17.70
2021,08,16,20,27,17.70
2021,08,16,20,28,17.70
2021,08,16,20,29,17.70
2021,08,16,20,30,17.60
2021,08,16,20,31,17.60
2021,08,16,20,32,17.60
2021,08,16,20,33,17.60
2021,08,16,20,34,17.60
2021,08,16,20,35,17.60
2021,08,16,20,36,17.60
2021,08,16,20,37,17.60
2021,08,16,20,38,17.50
2021,08,16,20,39,17.50
2021,08,16,20,40,17.60
2021,08,16,20,41,17.60
2021,08,16,20,42,17.60
2021,08,16,20,43,17.60
2021,08,16,20,44,17.60
2021,08,16,20,45,17.60
2021,08,16,20,46,17.60
2021,08,16,20,47,17.60
2021,08,16,20,48,17.60
2021,08,16,20,49,17.60
2021,08,16,20,50,17.60
2021,08,16,20,51,17.60
2021,08,16,20,52,17.50
2021,08,16,20,53,17.40
2021,08,16,20,54,17.30
2021,08,16,20,55,17.30
2021,08,16,20,56,17.30
2021,08,16,20,57,17.20
2021,08,16,20,58,17.20
2021,08,16,20,59,17.10
2021,08,16,21,00,17.10
2021,08,16,21,01,17.00
2021,08,16,21,02,17.00
2021,08,16,21,03,16.90
2021,08,16,21,04,16.90
2021,08,16,21,05,16.90
2021,08,16,21,06,16.90
2021,08,16,21,07,16.90
2021,08,16,21,08,16.80
2021,08,16,21,09,16.80
2021,08,16,21,10,16.80
2021,08,16,21,11,16.70
2021,08,16,21,12,16.70
2021,08,16,21,13,16.70
2021,08,16,21,14,16.70
2021,08,16,21,15,16.70
2021,08,16,21,16,16.70
2021,08,16,21,17,16.70
2021,08,16,21,18,16.70
2021,08,16,21,19,16.70
2021,08,16,21,20,16.70
2021,08,16,21,21,16.70
2021,08,16,21,22,16.70
2021,08,16,21,23,16.70
2021,08,16,21,24,16.70
2021,08,16,21,25,16.70
2021,08,16,21,26,16.70
2021,08,16,21,27,16.70
2021,08,16,21,28,16.70
2021,08,16,21,29,16.70
2021,08,16,21,30,16.70
2021,08,16,21,31,16.70
2021,08,16,21,32,16.70